{"data":{"norad_id":63081,"intl_designator":"2025-037E","name":"STARLINK-32895","alt_names":[],"object_type":"PAYLOAD","status":"ACTIVE","operator":null,"country":"US","launch_date":"2025-02-23","launch_site_code":"AFWTR","launch_vehicle":null,"mission":null,"orbit_class":"UNKNOWN","rcs_meters":null,"size_class":null,"mass_kg":null,"dimensions":null,"purposes":["comms"],"wikipedia_slug":null,"has_3d_model":false,"image_url":null,"decayed_at":null,"tle_current":{"epoch":"2026-09-21T21:41:40.416864Z","epoch_age_seconds":41036,"freshness":"FRESH","line1":"1 63081U 25037E   26264.90394001  .00003011  00000+0  10915-3 0  9994","line2":"2 63081  70.0014 217.3182 0005358 312.2130  47.8589 15.29572332 87914","mean_motion":15.29572332,"eccentricity":0.0005358,"inclination_deg":70.0014,"raan_deg":217.3182,"arg_perigee_deg":312.213,"mean_anomaly_deg":47.8589,"bstar":0.00010915,"rev_number":8791,"period_min":94.14396232685,"perigee_km":473.41678324685,"apogee_km":480.76284430049,"semimajor_km":6855.2268137737,"source":"CELESTRAK","updated_at":"2026-09-22T09:00:49.757719Z"}}}